Total_Precipitation_Accumulation
0.71 0.62 0.78 0.83 0.76 0.83 1.12 1.01 0.92 0.60 0.52 0.56 0.57 0.57 0.53 0.52 0.51 0.51 0.57 0.62 0.64 0.67 0.67 0.66 0.69 0.68 0.68 0.70 0.80 0.90 0.98 1.02 1.01 1.06 1.11 1.13 1.16 1.20 1.17 1.21 1.24 1.28 1.31 1.27
0.68 0.57 0.66 0.71 0.63 0.63 0.66 0.64 0.63 0.50 0.56 0.52 0.50 0.47 0.46 0.46 0.45 0.46 0.52 0.57 0.59 0.60 0.59 0.59 0.65 0.68 0.67 0.68 0.75 0.82 0.92 0.99 0.97 0.94 0.97 1.07 1.17 1.21 1.23 1.21 1.25 1.30 1.36 1.38
0.79 0.55 0.69 0.84 0.72 0.61 0.59 0.58 0.56 0.66 0.65 0.47 0.46 0.46 0.50 0.48 0.45 0.47 0.49 0.51 0.52 0.54 0.55 0.58 0.63 0.65 0.65 0.69 0.75 0.76 0.85 0.95 0.97 0.96 1.00 1.03 1.12 1.23 1.31 1.32 1.33 1.41 1.49 1.54
0.92 0.73 0.96 0.83 0.50 0.41 0.43 0.50 0.51 0.54 0.51 0.47 0.53 0.51 0.46 0.44 0.43 0.43 0.44 0.46 0.45 0.47 0.48 0.49 0.53 0.58 0.62 0.65 0.69 0.71 0.74 0.84 0.91 0.95 1.06 1.14 1.19 1.22 1.27 1.34 1.42 1.53 1.61 1.63
0.95 0.80 0.64 0.43 0.33 0.40 0.44 0.52 0.44 0.39 0.36 0.35 0.37 0.40 0.40 0.35 0.34 0.39 0.43 0.47 0.48 0.47 0.50 0.48 0.47 0.52 0.58 0.65 0.69 0.72 0.76 0.85 0.93 0.96 1.02 1.12 1.26 1.30 1.32 1.35 1.42 1.48 1.50 1.45
0.96 0.86 0.59 0.46 0.27 0.27 0.38 0.57 0.37 0.33 0.32 0.29 0.28 0.37 0.42 0.37 0.33 0.30 0.32 0.40 0.46 0.45 0.46 0.47 0.49 0.54 0.61 0.67 0.76 0.86 0.93 0.99 1.08 1.14 1.15 1.13 1.19 1.25 1.26 1.20 1.16 1.09 1.04 1.01
0.88 0.86 0.56 0.44 0.26 0.21 0.51 0.68 0.36 0.34 0.34 0.31 0.35 0.40 0.33 0.28 0.29 0.31 0.31 0.36 0.43 0.47 0.50 0.53 0.58 0.63 0.73 0.80 0.92 1.01 1.06 1.07 1.14 1.18 1.19 1.14 1.05 0.96 0.91 0.86 0.81 0.79 0.75 0.72
0.67 0.87 0.66 0.35 0.28 0.54 0.69 0.42 0.32 0.30 0.30 0.31 0.29 0.24 0.20 0.19 0.20 0.23 0.28 0.34 0.43 0.50 0.53 0.57 0.63 0.68 0.75 0.84 0.91 0.92 0.96 0.95 0.95 0.91 0.82 0.78 0.77 0.73 0.73 0.73 0.68 0.66 0.67 0.70
0.69 0.77 0.63 0.44 0.49 0.52 0.44 0.37 0.30 0.31 0.30 0.29 0.25 0.21 0.19 0.18 0.17 0.18 0.22 0.28 0.34 0.41 0.44 0.46 0.50 0.56 0.65 0.67 0.66 0.65 0.66 0.65 0.65 0.64 0.61 0.61 0.63 0.66 0.68 0.71 0.71 0.67 0.65 0.68
0.49 0.45 0.36 0.31 0.27 0.25 0.27 0.32 0.29 0.28 0.29 0.28 0.29 0.25 0.23 0.21 0.20 0.20 0.21 0.25 0.30 0.33 0.36 0.38 0.38 0.45 0.54 0.53 0.51 0.53 0.56 0.57 0.58 0.60 0.59 0.60 0.61 0.64 0.69 0.72 0.73 0.72 0.70 0.68
0.40 0.33 0.28 0.24 0.22 0.24 0.23 0.22 0.21 0.21 0.23 0.27 0.29 0.28 0.27 0.26 0.27 0.26 0.26 0.28 0.32 0.38 0.40 0.41 0.40 0.41 0.44 0.45 0.46 0.53 0.54 0.55 0.57 0.60 0.63 0.61 0.63 0.68 0.73 0.75 0.82 0.86 0.81 0.73
0.48 0.38 0.43 0.36 0.28 0.26 0.26 0.26 0.26 0.25 0.23 0.24 0.28 0.32 0.30 0.29 0.29 0.30 0.31 0.31 0.34 0.39 0.44 0.46 0.45 0.45 0.46 0.48 0.50 0.56 0.60 0.60 0.62 0.65 0.66 0.69 0.70 0.70 0.77 0.81 0.86 0.89 0.86 0.80
0.44 0.34 0.31 0.28 0.25 0.26 0.29 0.31 0.30 0.30 0.30 0.28 0.26 0.28 0.28 0.29 0.29 0.29 0.30 0.32 0.37 0.42 0.46 0.49 0.49 0.50 0.53 0.54 0.55 0.59 0.63 0.67 0.67 0.67 0.67 0.70 0.75 0.75 0.76 0.77 0.81 0.87 0.90 0.85
0.29 0.27 0.29 0.28 0.31 0.28 0.28 0.28 0.27 0.27 0.27 0.27 0.26 0.24 0.25 0.27 0.28 0.29 0.34 0.39 0.42 0.43 0.45 0.46 0.47 0.50 0.57 0.59 0.58 0.59 0.59 0.67 0.73 0.71 0.71 0.72 0.77 0.81 0.80 0.78 0.78 0.78 0.82 0.87
0.26 0.30 0.37 0.33 0.28 0.26 0.26 0.24 0.23 0.25 0.24 0.25 0.25 0.25 0.25 0.27 0.30 0.33 0.36 0.38 0.39 0.40 0.42 0.44 0.44 0.48 0.52 0.57 0.59 0.58 0.57 0.64 0.72 0.76 0.75 0.75 0.77 0.80 0.80 0.79 0.79 0.77 0.75 0.82
0.24 0.21 0.21 0.22 0.23 0.22 0.21 0.22 0.24 0.24 0.24 0.23 0.23 0.25 0.27 0.30 0.31 0.32 0.33 0.35 0.39 0.44 0.47 0.46 0.45 0.48 0.48 0.51 0.53 0.54 0.57 0.68 0.74 0.76 0.76 0.74 0.73 0.75 0.76 0.77 0.77 0.74 0.74 0.78
0.23 0.22 0.20 0.21 0.21 0.22 0.24 0.27 0.29 0.29 0.27 0.27 0.28 0.27 0.27 0.27 0.27 0.29 0.32 0.35 0.40 0.46 0.48 0.46 0.47 0.45 0.46 0.48 0.50 0.51 0.55 0.63 0.71 0.70 0.70 0.72 0.73 0.75 0.76 0.76 0.74 0.71 0.73 0.82
0.25 0.27 0.27 0.29 0.28 0.28 0.28 0.28 0.28 0.28 0.28 0.28 0.27 0.26 0.28 0.29 0.31 0.33 0.35 0.34 0.32 0.34 0.39 0.43 0.47 0.47 0.48 0.50 0.52 0.53 0.57 0.62 0.64 0.66 0.67 0.69 0.72 0.72 0.73 0.74 0.71 0.71 0.72 0.79
0.22 0.24 0.25 0.26 0.29 0.31 0.32 0.33 0.33 0.32 0.31 0.30 0.29 0.30 0.31 0.32 0.34 0.34 0.33 0.29 0.29 0.33 0.40 0.43 0.46 0.44 0.45 0.50 0.56 0.56 0.58 0.61 0.61 0.63 0.64 0.67 0.68 0.65 0.67 0.68 0.68 0.69 0.70 0.73
0.23 0.25 0.25 0.27 0.29 0.32 0.33 0.33 0.32 0.31 0.31 0.31 0.31 0.29 0.29 0.31 0.33 0.33 0.31 0.32 0.39 0.47 0.48 0.46 0.41 0.40 0.43 0.46 0.54 0.55 0.56 0.57 0.59 0.61 0.61 0.62 0.63 0.62 0.62 0.63 0.64 0.64 0.65 0.68
0.22 0.23 0.25 0.27 0.29 0.30 0.33 0.32 0.31 0.32 0.32 0.30 0.31 0.33 0.33 0.32 0.31 0.30 0.29 0.32 0.38 0.40 0.39 0.38 0.37 0.40 0.44 0.49 0.51 0.50 0.51 0.53 0.56 0.58 0.60 0.62 0.63 0.61 0.61 0.62 0.62 0.63 0.65 0.67
0.24 0.24 0.24 0.24 0.24 0.25 0.26 0.26 0.27 0.29 0.29 0.29 0.29 0.29 0.29 0.29 0.27 0.26 0.27 0.35 0.39 0.38 0.35 0.35 0.40 0.47 0.53 0.54 0.49 0.47 0.49 0.51 0.54 0.57 0.60 0.62 0.64 0.63 0.61 0.61 0.62 0.61 0.61 0.63
0.25 0.25 0.26 0.27 0.27 0.26 0.24 0.25 0.27 0.28 0.28 0.29 0.29 0.29 0.29 0.28 0.26 0.27 0.31 0.31 0.31 0.32 0.33 0.37 0.43 0.49 0.51 0.49 0.45 0.44 0.46 0.49 0.52 0.55 0.58 0.61 0.63 0.64 0.63 0.61 0.60 0.58 0.58 0.58
0.23 0.24 0.25 0.23 0.20 0.19 0.20 0.22 0.24 0.26 0.26 0.26 0.27 0.27 0.27 0.25 0.23 0.23 0.28 0.29 0.28 0.30 0.31 0.34 0.37 0.39 0.40 0.38 0.37 0.39 0.41 0.43 0.45 0.48 0.50 0.52 0.53 0.55 0.56 0.56 0.55 0.53 0.53 0.54
0.18 0.19 0.19 0.18 0.18 0.18 0.18 0.17 0.17 0.19 0.20 0.20 0.19 0.19 0.20 0.23 0.26 0.24 0.22 0.21 0.22 0.25 0.26 0.26 0.28 0.29 0.29 0.29 0.32 0.35 0.37 0.40 0.44 0.47 0.46 0.45 0.46 0.48 0.49 0.49 0.51 0.51 0.49 0.49
0.13 0.13 0.13 0.13 0.15 0.15 0.15 0.15 0.16 0.15 0.15 0.14 0.14 0.15 0.15 0.16 0.16 0.17 0.17 0.17 0.18 0.21 0.21 0.20 0.20 0.22 0.23 0.25 0.28 0.31 0.33 0.34 0.36 0.38 0.38 0.39 0.39 0.41 0.41 0.42 0.43 0.46 0.46 0.46
0.10 0.09 0.09 0.09 0.09 0.10 0.11 0.12 0.14 0.14 0.15 0.17 0.19 0.16 0.15 0.14 0.13 0.14 0.15 0.16 0.17 0.18 0.18 0.19 0.21 0.23 0.24 0.25 0.26 0.27 0.29 0.31 0.32 0.35 0.36 0.38 0.38 0.39 0.39 0.39 0.40 0.41 0.41 0.41